Weather History for PAMH - February, 2013

Change the Weather History Date:

Monday, February 11, 2013

  Actual Average Record
Temperature  
Mean Temperature 8 °F -  
Max Temperature 17 °F 7 °F 35 °F (2006)
Min Temperature -2 °F -2 °F -41 °F (1999)
Degree Days  
Heating Degree Days 58    
Moisture  
Dew Point 7 °F    
Average Humidity 86    
Maximum Humidity 100    
Minimum Humidity 66    
Precipitation  
Precipitation 0.00 in - - ()
Sea Level Pressure  
Sea Level Pressure 29.63 in    
Wind  
Wind Speed 0 mph (NNW)    
Max Wind Speed 5 mph    
Max Gust Speed -    
Visibility 8 miles    
Events      
Averages and records for this station are not official NWS values.
T = Trace of Precipitation, MM = Missing Value Source: NWS Daily Summary

Daily Weather History Graph

Daily Weather History Graph

Search for Another Location

Airport or City:

Trip Planner

Search our weather history database for the weather conditions in past years. The results will help you decide how hot, cold, wet, or windy it might be!

Date:

Astronomy

Feb. 11, 2013 Rise Set
Actual Time 9:14 AM AKST 5:33 PM AKST
Civil Twilight 8:22 AM AKST 6:25 PM AKST
Nautical Twilight 7:26 AM AKST 7:21 PM AKST
Astronomical Twilight 6:32 AM AKST 8:16 PM AKST
Moon 8:50 AM AKST (2/11) 8:46 PM AKST (2/11)
Length of Visible Light 10h 02m
Length of Day
8h 18m
Waxing Crescent, 3% of the Moon is Illuminated
Feb 11
Waxing Crescent
Feb 17
First Quarter
Feb 25
Full
Mar 4
Last Quarter
Mar 11
New

Hourly Weather History & Observations

Time (AKST) Temp. Windchill Dew Point Humidity Pressure Visibility Wind Dir Wind Speed Gust Speed Precip Events Conditions
12:16 AM 14.0 °F - 12.2 °F 93% 29.48 in 2.0 mi Calm Calm - N/A   Overcast
12:36 AM 15.8 °F - 15.8 °F 100% 29.49 in 3.0 mi Calm Calm - N/A   Overcast
12:56 AM 14.0 °F - 8.6 °F 79% 29.49 in 3.0 mi Calm Calm - N/A   Overcast
1:16 AM 14.0 °F - 12.2 °F 93% 29.50 in 3.0 mi Calm Calm - N/A   Overcast
1:36 AM 12.2 °F - 10.4 °F 92% 29.51 in 7.0 mi Calm Calm - N/A   Overcast
1:56 AM 14.0 °F - 12.2 °F 93% 29.51 in 9.0 mi Calm Calm - N/A   Overcast
2:16 AM 14.0 °F - 12.2 °F 93% 29.52 in 9.0 mi Calm Calm - N/A   Overcast
2:36 AM 17.6 °F - 15.8 °F 93% 29.52 in 8.0 mi Calm Calm - N/A   Overcast
3:16 AM 17.6 °F - 15.8 °F 93% 29.53 in 3.0 mi Calm Calm - N/A   Overcast
3:36 AM 17.6 °F - 14.0 °F 86% 29.54 in 3.0 mi Calm Calm - N/A   Overcast
3:56 AM 17.6 °F - 14.0 °F 86% 29.55 in 6.0 mi Calm Calm - N/A   Overcast
4:16 AM 17.6 °F - 12.2 °F 79% 29.56 in 7.0 mi Calm Calm - N/A   Overcast
4:36 AM 15.8 °F - 12.2 °F 86% 29.56 in 5.0 mi Calm Calm - N/A   Overcast
4:56 AM 15.8 °F - 12.2 °F 86% 29.56 in 5.0 mi Calm Calm - N/A   Overcast
5:16 AM 15.8 °F 10.2 °F 10.4 °F 79% 29.57 in 7.0 mi NNW 3.5 mph - N/A   Overcast
5:36 AM 15.8 °F 8.6 °F 10.4 °F 79% 29.58 in 4.0 mi NW 4.6 mph - N/A   Overcast
5:56 AM 15.8 °F 10.2 °F 10.4 °F 79% 29.58 in 5.0 mi North 3.5 mph - N/A   Overcast
6:16 AM 15.8 °F 10.2 °F 10.4 °F 79% 29.59 in 2.0 mi North 3.5 mph - N/A   Overcast
6:36 AM 15.8 °F 10.2 °F 10.4 °F 79% 29.60 in 6.0 mi NNW 3.5 mph - N/A   Overcast
6:56 AM 14.0 °F - 10.4 °F 86% 29.60 in 10.0 mi Calm Calm - N/A   Overcast
7:16 AM 14.0 °F - 10.4 °F 86% 29.61 in 10.0 mi Calm Calm - N/A   Mostly Cloudy
7:36 AM 14.0 °F - 8.6 °F 79% 29.61 in 10.0 mi Calm Calm - N/A   Mostly Cloudy
7:56 AM 12.2 °F - 8.6 °F 85% 29.62 in 10.0 mi Calm Calm - N/A   Mostly Cloudy
8:16 AM 12.2 °F - 8.6 °F 85% 29.62 in 10.0 mi Calm Calm - N/A   Overcast
8:36 AM 12.2 °F - 8.6 °F 85% 29.63 in 10.0 mi Calm Calm - N/A   Overcast
8:56 AM 12.2 °F - 10.4 °F 92% 29.64 in 10.0 mi Calm Calm - N/A   Overcast
9:16 AM 12.2 °F - 10.4 °F 92% 29.64 in 10.0 mi Calm Calm - N/A   Overcast
9:36 AM 12.2 °F - 8.6 °F 85% 29.65 in 10.0 mi Calm Calm - N/A   Overcast
9:56 AM 14.0 °F - 8.6 °F 79% 29.65 in 10.0 mi Calm Calm - N/A   Overcast
10:16 AM 12.2 °F - 8.6 °F 85% 29.66 in 7.0 mi Calm Calm - N/A   Overcast
10:36 AM 12.2 °F - 8.6 °F 85% 29.66 in 2.5 mi Calm Calm - N/A   Overcast
10:56 AM 12.2 °F - 8.6 °F 85% 29.67 in 1.0 mi Calm Calm - N/A   Overcast
11:16 AM 12.2 °F - 8.6 °F 85% 29.67 in 5.0 mi Calm Calm - N/A   Overcast
11:36 AM 10.4 °F - 6.8 °F 85% 29.68 in 5.0 mi Calm Calm - N/A   Mostly Cloudy
11:56 AM 12.2 °F - 8.6 °F 85% 29.68 in 10.0 mi Calm Calm - N/A   Partly Cloudy
12:16 PM 12.2 °F - 8.6 °F 85% 29.68 in 10.0 mi Calm Calm - N/A   Clear
12:36 PM 12.2 °F - 8.6 °F 85% 29.68 in 10.0 mi Calm Calm - N/A   Clear
12:56 PM 10.4 °F - 6.8 °F 85% 29.68 in 10.0 mi Calm Calm - N/A   Clear
1:56 PM 10.4 °F - 6.8 °F 85% 29.67 in 10.0 mi Calm Calm - N/A   Clear
2:16 PM 10.4 °F - 6.8 °F 85% 29.68 in 10.0 mi Calm Calm - N/A   Clear
2:36 PM 12.2 °F - 6.8 °F 79% 29.68 in 10.0 mi Calm Calm - N/A   Clear
2:56 PM 12.2 °F - 8.6 °F 85% 29.69 in 10.0 mi Calm Calm - N/A   Clear
3:16 PM 12.2 °F - 8.6 °F 85% 29.69 in 10.0 mi Calm Calm - N/A   Clear
3:36 PM 14.0 °F - 8.6 °F 79% 29.68 in 10.0 mi Calm Calm - N/A   Clear
3:56 PM 12.2 °F - 6.8 °F 79% 29.68 in 10.0 mi Calm Calm - N/A   Clear
4:16 PM 12.2 °F - 6.8 °F 79% 29.68 in 10.0 mi Calm Calm - N/A   Clear
4:36 PM 12.2 °F - 6.8 °F 79% 29.68 in 10.0 mi Calm Calm - N/A   Clear
4:56 PM 12.2 °F - 6.8 °F 79% 29.68 in 10.0 mi Calm Calm - N/A   Clear
5:16 PM 10.4 °F - 6.8 °F 85% 29.68 in 10.0 mi Calm Calm - N/A   Clear
5:36 PM 10.4 °F - 5.0 °F 79% 29.68 in 10.0 mi Calm Calm - N/A   Clear
5:56 PM 8.6 °F - 6.8 °F 92% 29.68 in 10.0 mi Calm Calm - N/A   Clear
6:16 PM 8.6 °F - 6.8 °F 92% 29.68 in 10.0 mi Calm Calm - N/A   Clear
6:36 PM 8.6 °F - 6.8 °F 92% 29.67 in 10.0 mi Calm Calm - N/A   Clear
6:56 PM 3.2 °F - -0.4 °F 85% 29.68 in 10.0 mi Calm Calm - N/A   Clear
7:16 PM 6.8 °F - 6.8 °F 100% 29.68 in 10.0 mi Calm Calm - N/A   Clear
7:36 PM 5.0 °F - 1.4 °F 85% 29.68 in 10.0 mi Calm Calm - N/A   Clear
7:56 PM 6.8 °F - 3.2 °F 85% 29.68 in 10.0 mi Calm Calm - N/A   Clear
8:16 PM 3.2 °F - -0.4 °F 85% 29.68 in 10.0 mi Calm Calm - N/A   Clear
8:36 PM 5.0 °F - 3.2 °F 92% 29.68 in 10.0 mi Calm Calm - N/A   Clear
8:56 PM 5.0 °F - 3.2 °F 92% 29.68 in 10.0 mi Calm Calm - N/A   Scattered Clouds
9:16 PM 3.2 °F - 1.4 °F 92% 29.67 in 10.0 mi Calm Calm - N/A   Mostly Cloudy
9:36 PM 1.4 °F - 1.4 °F 100% 29.67 in 10.0 mi Calm Calm - N/A   Overcast
9:56 PM -2.2 °F - -11.2 °F 66% 29.67 in 10.0 mi Calm Calm - N/A   Overcast
10:16 PM 1.4 °F - 1.4 °F 100% 29.67 in 10.0 mi Calm Calm - N/A   Overcast
10:36 PM -2.2 °F - -2.2 °F 100% 29.67 in 10.0 mi Calm Calm - N/A   Overcast
10:56 PM -0.4 °F - -4.0 °F 85% 29.67 in 10.0 mi Calm Calm - N/A   Overcast
11:16 PM 3.2 °F - -0.4 °F 85% 29.67 in 10.0 mi Calm Calm - N/A   Overcast
11:36 PM 1.4 °F - 1.4 °F 100% 29.67 in 10.0 mi Calm Calm - N/A   Overcast
11:56 PM 5.0 °F - 3.2 °F 92% 29.66 in 10.0 mi Calm Calm - N/A   Overcast